This demonstration page uses our WeatherBlox Daily Observations layout. Learn more.

Left ArrowRight Arrow

34.02893, -84.19858

Hourly Observations for July 7, 2021

Temp ( °F °C ) Dew Point ( °F °C ) Humidity (%) Winds ( mph kmh ) Pressure ( in mb ) Visibility ( mi km ) Precip ( " mm )
12:22 am 00:22 Mostly Cloudy 71 21.7 68 20 90 90 S 6 9 30.11 1020 10 16 0.00 0.00
12:37 am 00:37 Mostly Cloudy 71 21.7 68 20 90 90 S 5 7 30.11 1020 10 16 0.00 0.00
12:45 am 00:45 Partly Cloudy 71 21.7 68 20 90 90 S 7 11 30.10 1019 10 16 0.00 0.00
12:53 am 00:53 Mostly Clear 70 21.1 68 20 93 93 S 7 11 30.08 1019 10 16 0.00 0.00
1:53 am 01:53 Partly Cloudy 70 21.1 68 20 93 93 S 6 9 30.07 1018 10 16 0.00 0.00
2:53 am 02:53 Partly Cloudy 70 21.1 68 20 93 93 W 5 7 30.04 1017 10 16 0.00 0.00
3:53 am 03:53 Mostly Cloudy 71 21.7 68 20 90 90 Calm 30.03 1017 10 16 0.00 0.00
4:53 am 04:53 Partly Cloudy 71 21.7 68 20 90 90 Calm 30.03 1017 10 16 0.00 0.00
5:53 am 05:53 Clear 71 21.7 68 20 90 90 N 5 7 30.03 1017 10 16 0.00 0.00
6:53 am 06:53 Cloudy 71 21.7 68 20 90 90 Calm 30.04 1017 10 16 0.00 0.00
7:53 am 07:53 Mostly Cloudy 72 22.2 68 20 87 87 E 3 6 30.04 1017 10 16 0.00 0.00
8:53 am 08:53 Sunny 74 23.3 69 20.6 85 85 Calm 30.05 1018 10 16 0.00 0.00
9:53 am 09:53 Sunny 76 24.4 69 20.6 79 79 ESE 3 6 30.05 1018 10 16 0.00 0.00
10:53 am 10:53 Partly Cloudy 79 26.1 70 21.1 74 74 VRB 3 6 30.06 1018 10 16 0.00 0.00
11:51 am 11:51 Mostly Cloudy 82 28 70 21 66 66 Calm 30.05 1017 10 16 0.00 0.00
11:53 am 11:53 Partly Cloudy 81 27.2 69 20.6 67 67 VRB 5 7 30.05 1018 10 16 0.00 0.00
12:53 pm 12:53 Partly Cloudy 84 28.9 70 21.1 63 63 VRB 3 6 30.03 1017 10 16 0.00 0.00
1:53 pm 13:53 Cloudy 83 28.3 69 20.6 63 63 undefined N/A 30.01 1016 10 16 0.00 0.00
2:53 pm 14:53 Mostly Sunny 86 30 68 20 55 55 VRB 5 7 29.97 1015 10 16 0.00 0.00
3:53 pm 15:53 Cloudy 80 26.7 67 19.4 64 64 VRB 5 7 29.96 1015 10 16 0.05 1.27
4:53 pm 16:53 Cloudy 82 27.8 69 20.6 65 65 SSE 5 7 29.94 1014 10 16 0.00 0.00
5:53 pm 17:53 Cloudy 83 28.3 69 20.6 63 63 S 7 11 29.93 1014 10 16 0.00 0.00
6:53 pm 18:53 Cloudy 82 27.8 69 20.6 65 65 Calm 29.93 1013 10 16 0.00 0.00
7:53 pm 19:53 Mostly Sunny 78 25.6 70 21.1 76 76 N 9 15 29.93 1013 10 16 0.00 0.00
8:53 pm 20:53 Mostly Cloudy 76 24.4 70 21.1 82 82 N 10 17 29.93 1014 10 16 0.00 0.00
9:53 pm 21:53 Cloudy 76 24.4 69 20.6 79 79 VRB 3 6 29.95 1014 10 16 0.00 0.00
10:14 pm 22:14 Cloudy with Heavy Rain 71 21.7 69 20.6 94 94 VRB 5 7 29.99 1016 2 3 0.17 4.32
10:30 pm 22:30 Cloudy with Rain 70 21.1 69 20.6 97 97 VRB 3 6 29.99 1016 3 5 0.33 8.38
10:40 pm 22:40 Cloudy with Rain 70 21.1 68 20 93 93 ESE 3 6 29.99 1016 2 3 0.40 10.16
10:50 pm 22:50 Cloudy with Light Rain 70 21 70 21 100 100 Calm 29.99 1016 4 6 0.42 10.67
10:53 pm 22:53 Cloudy with Light Rain 70 21.1 69 20.6 97 97 Calm 29.97 1015 4 6 0.43 10.92
11:53 pm 23:53 Cloudy 70 21.1 69 20.6 97 97 NNE 5 7 29.95 1014 10 16 0.05 1.27

Powered by AerisWeather